Previsão horária em Jurkowice

Hoje, 21 Junho, Segunda-feira

Tempo Temperatura Precipitação Vento Pressão Humidade
00:00 +18°C° 0 mm 2 m/s 732 mmHg 91%
01:00 +18°C° 0 mm 2 m/s 732 mmHg 92%
02:00 +17°C° 0 mm 2 m/s 732 mmHg 94%
03:00 +17°C° 0 mm 2 m/s 732 mmHg 95%
04:00 +17°C° 0 mm 3 m/s 732 mmHg 96%
05:00 +19°C° 0 mm 3 m/s 732 mmHg 91%
06:00 +20°C° 0 mm 4 m/s 732 mmHg 85%
07:00 +22°C° 0 mm 5 m/s 732 mmHg 79%
08:00 +23°C° 0 mm 5 m/s 732 mmHg 73%
09:00 +26°C° 0 mm 5 m/s 732 mmHg 67%
10:00 +27°C° 0 mm 5 m/s 732 mmHg 61%
11:00 +28°C° 0 mm 5 m/s 732 mmHg 58%
12:00 +29°C° 0 mm 4 m/s 732 mmHg 55%
13:00 +29°C° 0 mm 4 m/s 731 mmHg 52%
14:00 +29°C° 0 mm 4 m/s 731 mmHg 51%
15:00 +30°C° 0 mm 3 m/s 731 mmHg 51%
16:00 +30°C° 0 mm 3 m/s 731 mmHg 51%
17:00 +28°C° 0 mm 3 m/s 731 mmHg 59%
18:00 +27°C° 0 mm 3 m/s 731 mmHg 66%
19:00 +25°C° 0 mm 3 m/s 730 mmHg 74%
20:00 +24°C° 0 mm 3 m/s 731 mmHg 79%
21:00 +22°C° 0 mm 3 m/s 731 mmHg 84%
22:00 +20°C° 0 mm 2 m/s 731 mmHg 89%
23:00 +20°C° 0 mm 2 m/s 731 mmHg 91%

Amanhã, 22 Junho, Terça-feira

Tempo Temperatura Precipitação Vento Pressão Humidade
00:00 +19°C° 0 mm 2 m/s 731 mmHg 92%
01:00 +19°C° 0 mm 2 m/s 731 mmHg 93%
02:00 +19°C° 0 mm 2 m/s 731 mmHg 93%
03:00 +18°C° 0 mm 2 m/s 731 mmHg 93%
04:00 +18°C° 0 mm 2 m/s 731 mmHg 93%
05:00 +20°C° 0 mm 2 m/s 731 mmHg 86%
06:00 +23°C° 0 mm 2 m/s 731 mmHg 80%
07:00 +24°C° 0 mm 2 m/s 732 mmHg 73%
08:00 +26°C° 0 mm 2 m/s 732 mmHg 68%
09:00 +27°C° 0 mm 2 m/s 732 mmHg 63%
10:00 +29°C° 0 mm 1 m/s 732 mmHg 57%
11:00 +30°C° 0 mm 1 m/s 732 mmHg 54%
12:00 +31°C° 0 mm 1 m/s 732 mmHg 51%
13:00 +32°C° 0 mm 1 m/s 732 mmHg 48%
14:00 +31°C° 0 mm 1 m/s 732 mmHg 49%
15:00 +31°C° 0 mm 1 m/s 732 mmHg 50%
16:00 +31°C° 0 mm 1 m/s 732 mmHg 51%
17:00 +28°C° 1.9 mm 2 m/s 733 mmHg 64%
18:00 +25°C° 1.9 mm 2 m/s 733 mmHg 78%
19:00 +21°C° 1.9 mm 3 m/s 733 mmHg 91%
20:00 +20°C° 0.9 mm 2 m/s 733 mmHg 91%
21:00 +21°C° 0.9 mm 1 m/s 733 mmHg 92%
22:00 +21°C° 0.9 mm 1 m/s 733 mmHg 92%
23:00 +21°C° 0.2 mm 1 m/s 733 mmHg 92%

Depois de amanhã, 23 Junho, Quarta-feira

Tempo Temperatura Precipitação Vento Pressão Humidade
00:00 +21°C° 0.2 mm 1 m/s 734 mmHg 92%
01:00 +20°C° 0.2 mm 1 m/s 734 mmHg 93%
02:00 +20°C° 0.4 mm 1 m/s 734 mmHg 93%
03:00 +20°C° 0.4 mm 1 m/s 734 mmHg 94%
04:00 +20°C° 0.4 mm 1 m/s 734 mmHg 95%
05:00 +21°C° 0 mm 1 m/s 734 mmHg 91%
06:00 +22°C° 0 mm 1 m/s 735 mmHg 87%
07:00 +22°C° 0 mm 0 m/s 735 mmHg 83%
08:00 +23°C° 0 mm 0 m/s 735 mmHg 77%
09:00 +25°C° 0 mm 0 m/s 735 mmHg 70%
10:00 +26°C° 0 mm 0 m/s 736 mmHg 64%
11:00 +27°C° 0 mm 0 m/s 736 mmHg 61%
12:00 +30°C° 0 mm 1 m/s 736 mmHg 57%
13:00 +31°C° 0 mm 1 m/s 736 mmHg 54%
14:00 +31°C° 0.2 mm 1 m/s 736 mmHg 54%
15:00 +31°C° 0.2 mm 1 m/s 736 mmHg 54%
16:00 +31°C° 0.2 mm 1 m/s 735 mmHg 54%
17:00 +28°C° 2.2 mm 2 m/s 736 mmHg 65%
18:00 +26°C° 2.2 mm 3 m/s 736 mmHg 75%
19:00 +24°C° 2.2 mm 3 m/s 736 mmHg 86%
20:00 +23°C° 0.3 mm 2 m/s 736 mmHg 86%
21:00 +23°C° 0.3 mm 1 m/s 736 mmHg 87%
22:00 +20°C° 0.3 mm 0 m/s 736 mmHg 88%
23:00 +22°C° 0 mm 1 m/s 736 mmHg 89%

24 Junho, Quinta-feira

Tempo Temperatura Precipitação Vento Pressão Humidade
00:00 +21°C° 0 mm 1 m/s 736 mmHg 90%
01:00 +21°C° 0 mm 1 m/s 736 mmHg 91%
02:00 +20°C° 0 mm 1 m/s 736 mmHg 91%
03:00 +20°C° 0 mm 1 m/s 736 mmHg 92%
04:00 +20°C° 0 mm 1 m/s 736 mmHg 92%
05:00 +21°C° 0 mm 1 m/s 737 mmHg 88%
06:00 +23°C° 0 mm 1 m/s 737 mmHg 84%
07:00 +24°C° 0 mm 1 m/s 737 mmHg 80%
08:00 +26°C° 0 mm 1 m/s 737 mmHg 74%
09:00 +27°C° 0 mm 1 m/s 737 mmHg 69%
10:00 +27°C° 0 mm 0 m/s 737 mmHg 63%
11:00 +28°C° 0 mm 0 m/s 737 mmHg 60%
12:00 +31°C° 0 mm 1 m/s 737 mmHg 57%
13:00 +31°C° 0 mm 1 m/s 737 mmHg 53%
14:00 +31°C° 0 mm 1 m/s 737 mmHg 52%
15:00 +32°C° 0 mm 1 m/s 736 mmHg 51%
16:00 +32°C° 0 mm 1 m/s 736 mmHg 49%
17:00 +30°C° 0 mm 1 m/s 736 mmHg 57%
18:00 +29°C° 0 mm 1 m/s 736 mmHg 64%
19:00 +27°C° 0 mm 2 m/s 736 mmHg 72%
20:00 +26°C° 3.3 mm 3 m/s 736 mmHg 78%
21:00 +23°C° 3.3 mm 4 m/s 736 mmHg 84%
22:00 +21°C° 3.3 mm 5 m/s 736 mmHg 90%
23:00 +20°C° 0.3 mm 4 m/s 735 mmHg 90%

25 Junho, Sexta-feira

Tempo Temperatura Precipitação Vento Pressão Humidade
00:00 +20°C° 0.3 mm 3 m/s 735 mmHg 90%
01:00 +19°C° 0.3 mm 2 m/s 734 mmHg 90%
02:00 +19°C° 0.1 mm 2 m/s 734 mmHg 91%
03:00 +19°C° 0.1 mm 2 m/s 733 mmHg 92%
04:00 +19°C° 0.1 mm 2 m/s 733 mmHg 93%
05:00 +21°C° 0.4 mm 2 m/s 733 mmHg 89%
06:00 +23°C° 0.4 mm 2 m/s 733 mmHg 86%
07:00 +25°C° 0.4 mm 2 m/s 733 mmHg 82%
08:00 +26°C° 0 mm 3 m/s 733 mmHg 76%
09:00 +28°C° 0 mm 4 m/s 733 mmHg 70%
10:00 +29°C° 0 mm 4 m/s 733 mmHg 65%
11:00 +29°C° 0.1 mm 5 m/s 733 mmHg 63%
12:00 +29°C° 0.1 mm 5 m/s 733 mmHg 62%
13:00 +30°C° 0.1 mm 5 m/s 733 mmHg 60%
14:00 +29°C° 0.2 mm 5 m/s 733 mmHg 63%
15:00 +28°C° 0.2 mm 5 m/s 733 mmHg 65%
16:00 +27°C° 0.2 mm 5 m/s 732 mmHg 68%
17:00 +26°C° 0.1 mm 4 m/s 733 mmHg 72%
18:00 +25°C° 0.1 mm 4 m/s 733 mmHg 76%
19:00 +24°C° 0.1 mm 3 m/s 733 mmHg 81%
20:00 +22°C° 0.1 mm 3 m/s 733 mmHg 85%
21:00 +20°C° 0.1 mm 3 m/s 733 mmHg 89%
22:00 +19°C° 0.1 mm 2 m/s 733 mmHg 93%
23:00 +18°C° 0.1 mm 2 m/s 733 mmHg 94%

26 Junho, Sábado

Tempo Temperatura Precipitação Vento Pressão Humidade
00:00 +18°C° 0.1 mm 2 m/s 733 mmHg 95%
01:00 +17°C° 0.1 mm 2 m/s 734 mmHg 96%
02:00 +17°C° 0.2 mm 2 m/s 734 mmHg 96%
03:00 +17°C° 0.2 mm 2 m/s 734 mmHg 96%
04:00 +16°C° 0.2 mm 2 m/s 734 mmHg 96%
05:00 +17°C° 0 mm 2 m/s 734 mmHg 91%
06:00 +19°C° 0 mm 3 m/s 735 mmHg 85%
07:00 +20°C° 0 mm 3 m/s 735 mmHg 80%
08:00 +20°C° 0.3 mm 4 m/s 735 mmHg 80%
09:00 +20°C° 0.3 mm 4 m/s 735 mmHg 81%
10:00 +20°C° 0.3 mm 4 m/s 735 mmHg 82%
11:00 +20°C° 0.2 mm 4 m/s 735 mmHg 78%
12:00 +21°C° 0.2 mm 4 m/s 735 mmHg 75%
13:00 +21°C° 0.2 mm 4 m/s 735 mmHg 72%
14:00 +21°C° 0 mm 4 m/s 735 mmHg 70%
15:00 +22°C° 0 mm 4 m/s 735 mmHg 68%
16:00 +22°C° 0 mm 3 m/s 734 mmHg 65%
17:00 +21°C° 0.1 mm 3 m/s 734 mmHg 70%
18:00 +20°C° 0.1 mm 3 m/s 734 mmHg 75%
19:00 +19°C° 0.1 mm 2 m/s 734 mmHg 80%
20:00 +18°C° 0 mm 2 m/s 734 mmHg 84%
21:00 +17°C° 0 mm 2 m/s 734 mmHg 88%
22:00 +16°C° 0 mm 2 m/s 735 mmHg 92%
23:00 +16°C° 0 mm 3 m/s 735 mmHg 93%
Mostrar mais

Necessitamos do seu Consentimento

A Meteoprog e os seus Fornecedores de Serviços podem armazenar e aceder a dados pessoais como cookies, identificadores do dispositivo ou outras tecnologias semelhantes existentes no seu dispositivo e processar estes dados para personalizar conteúdos e anúncios, assim como funcionalidades nas redes sociais e análise de tráfego.

  • Armazenar e/ou aceder a informações no seu dispositivo

    Os cookies, identificadores do dispositivo ou outras informações podem ser armazenados ou acedidos no seu dispositivo, para os fins acima indicados.

  • Anúncios e conteúdos personalizados, medição de anúncios e conteúdos, dados sobre o público-alvo e desenvolvimento de produtos

    Os anúncios e os conteúdos podem ser personalizados com base num perfil. Podem ser adicionados dados adicionais para uma maior personalização dos anúncios e dos conteúdos. A eficácia dos anúncios e dos conteúdos pode ser medida. Podem ser obtidas informações sobre o público que visualizou os anúncios e os conteúdos. Estes dados podem ser usados para desenvolver ou melhorar sistemas, softwares ou a experiência do utilizador.

Ao clicar em "Eu concordo”, permitirá o uso de cookies, identificadores do dispositivo e web beacons mencionados ou outras tecnologias semelhantes. As configurações do navegador do seu dispositivo podem ser alteradas.

Para certos fins, podem ser invocados interesses legítimos ao invés de consentimento. Pode ler mais informação sobre este assunto na nossa Política de Privacidade e Cookies.